[[{"header":{"parameterUnit":"m.s-1","parameterCategory":2,"la1":30.2991,"la2":30.254,"lo1":-89.0895,"lo2":-89.0444,"dy":0.0017,"dx":0.0017,"nx":28,"ny":28,"refTime":"2025-04-05T03:00:00:Z","depth":"0","parameterNumber":2,"parameterNumberName":"U-component_of_CURRENTS"},"data":[0,0,0,0,0,0,0,0,0,0,0,0,0,0,0,0,0,0,0,0,0,0,0,0,0,0,0,0,0,0,0,0,0,0,0,0,0,0,0,0,0,0,0,0,0,0,0,0,0,0,0,0,0,0,0,0,0,0,0.2698,0.2698,0,0.2721,0.2721,0.2721,0.2704,0.2704,0.2703,0.2703,0.2663,0.2663,0.2662,0,0,0,0,0,0,0,0,0,0,0,0,0,0.2636,0.2637,0.2698,0.2699,0.2699,0.2721,0.2721,0.2721,0.2704,0.2704,0.2703,0.2703,0.2664,0.2663,0.2662,0,0,0,0,0,0,0,0,0,0,0,0,0,0.2658,0.2637,0.2698,0.2696,0.2696,0.2721,0.2721,0.2721,0.2704,0.2704,0.2703,0.2702,0.2664,0.2663,0.2662,0.267,0,0,0.2659,0.2659,0,0,0,0,0,0,0,0,0.2657,0.266,0.2695,0.2696,0.2696,0.2712,0.2685,0.2702,0.2704,0.2698,0.2703,0.2702,0.2676,0.2674,0.2677,0.2668,0.2667,0.2659,0.2659,0.2658,0.2658,0,0,0,0,0,0,0,0.2655,0.2659,0.2704,0.2696,0.2697,0.2693,0.2695,0.2688,0.2687,0.2698,0.2698,0.2706,0.2676,0.2678,0.2676,0.2666,0.2659,0.2658,0.2658,0.2657,0.2688,0.2689,0,0,0,0,0,0,0.266,0.2658,0.2703,0.2705,0.2678,0.2695,0.2697,0.2705,0.2688,0.2687,0.2706,0.2705,0.268,0.2677,0.2674,0.2693,0.2658,0.2657,0.2657,0.2686,0.2688,0.2689,0,0,0,0,0,0,0.2659,0.2664,0.2702,0.2684,0.2689,0.2697,0.2706,0.2706,0.2711,0.2696,0.2692,0.2712,0.2679,0.2675,0.2679,0.2691,0.2657,0.2656,0.2685,0.2687,0.2689,0.2724,0,0,0,0,0,0,0.2657,0.2663,0.267,0.2685,0.2691,0.272,0.2707,0.2707,0.2718,0.2716,0.27,0.2695,0.2678,0.2681,0.2679,0.2689,0.2655,0.2683,0.2686,0.2688,0.2722,0.2727,0.2732,0,0,0,0,0,0.2655,0.2666,0.267,0.2675,0.2699,0.2721,0.2724,0.2724,0.2719,0.2725,0.2719,0.2696,0.2695,0.2682,0.2678,0.2688,0.2682,0.2685,0.2688,0.2719,0.2726,0.2732,0,0,0,0,0,0,0.264,0.2666,0.267,0.2689,0.2706,0.272,0.2728,0.2731,0.2732,0.2729,0.271,0.2706,0.2715,0.2703,0.2688,0.2708,0.2686,0.2689,0.2711,0.2717,0.2723,0.2717,0.2655,0,0,0,0,0,0.2642,0.2659,0.2681,0.2697,0.2707,0.2719,0.2729,0.2732,0.2738,0.2738,0.2727,0.2723,0.2726,0.2722,0.272,0.2728,0.2731,0.2736,0.2742,0.2746,0.2741,0.2768,0.2775,0.2699,0.2699,0.2699,0,0,0.264,0.2659,0.2667,0.2695,0.2708,0.2724,0.2722,0.2741,0.2751,0.2733,0.2738,0.274,0.2735,0.2746,0.2749,0.2735,0.2773,0.275,0.2754,0.2746,0.2772,0.2779,0.2786,0.2702,0.2701,0.2701,0,0,0.2648,0.2663,0.268,0.2696,0.2723,0.2732,0.274,0.2758,0.2761,0.2774,0.2768,0.2779,0.2776,0.2779,0.2779,0.2816,0.2804,0.2818,0.2834,0.2861,0.2867,0.2872,0.2899,0.2906,0.2818,0.2818,0.2818,0,0.2645,0.2666,0.2687,0.2707,0.2717,0.2736,0.275,0.2764,0.2778,0.2785,0.2778,0.2798,0.2791,0.2813,0.2826,0.2826,0.284,0.2806,0.2867,0.2872,0.2877,0.2903,0.291,0.282,0.282,0.2819,0.2819,0,0.2666,0.2679,0.2691,0.2719,0.2735,0.2751,0.2774,0.2788,0.2795,0.2806,0.2829,0.2834,0.2842,0.2851,0.2846,0.2881,0.2882,0.2873,0.2846,0.2886,0.2912,0.2919,0.2823,0.2822,0.2821,0.2821,0,0,0.2657,0.2697,0.2696,0.2702,0.2739,0.2748,0.2777,0.2801,0.2814,0.2836,0.2854,0.2875,0.2881,0.2884,0.2888,0.2911,0.2962,0.2906,0.2907,0.2926,0.3028,0.3036,0.3044,0.2966,0.2967,0.2968,0.3036,0,0.266,0.2683,0.2707,0.2719,0.2729,0.2757,0.2775,0.2801,0.2824,0.2848,0.2875,0.2893,0.2894,0.2902,0.2929,0.2954,0.2981,0.2944,0.2991,0.2992,0.2989,0.3053,0.3008,0.3066,0.3043,0.3044,0.3045,0,0.2663,0.2676,0.2688,0.2706,0.2712,0.2724,0.275,0.2771,0.2821,0.2844,0.2882,0.2904,0.295,0.294,0.3009,0.2988,0.3009,0.3028,0.3031,0.3026,0.3014,0.3021,0.308,0.3051,0.3056,0.3055,0.3055,0,0.2625,0.2654,0.2655,0.2664,0.2698,0.2705,0.272,0.2764,0.2788,0.2844,0.2877,0.2928,0.2965,0.3002,0.3054,0.3033,0.3131,0.3104,0.3132,0.3132,0.3096,0.3092,0.3124,0.3148,0.3148,0.3147,0.3147,0,0.2608,0.2605,0.2635,0.2635,0.2629,0.2668,0.2674,0.2707,0.2769,0.2797,0.2868,0.2912,0.2983,0.305,0.3075,0.3144,0.3153,0.3149,0.3156,0.311,0.3106,0.3079,0.3036,0.315,0.3149,0.3149,0.3148,0,0.2559,0.2584,0.2579,0.2606,0.261,0.2601,0.2641,0.2657,0.2729,0.2775,0.28,0.292,0.3011,0.3087,0.3162,0.3179,0.3156,0.3244,0.3191,0.3191,0.3169,0.3129,0.297,0.2879,0.3279,0.328,0.328,0,0.2534,0.2531,0.2539,0.2532,0.254,0.2542,0.2549,0.2619,0.2649,0.277,0.2796,0.2921,0.2995,0.3145,0.3209,0.3283,0.3175,0.327,0.3214,0.3179,0.314,0.295,0.287,0.3187,0.3186,0.3186,0.3186,0,0.2484,0.2487,0.2484,0.2465,0.2463,0.2455,0.2478,0.2502,0.2588,0.265,0.2739,0.2816,0.3004,0.3087,0.3222,0.3256,0.3131,0.3267,0.3243,0.3086,0.2865,0.2779,0.3132,0.3184,0.3184,0.3185,0.3185,0.3185,0.244,0.2414,0.241,0.238,0.2377,0.2354,0.2316,0.2373,0.2406,0.2464,0.2616,0.2699,0.2948,0.3144,0.3167,0.3234,0.311,0.3188,0.315,0.2965,0.2844,0.3198,0.325,0.3251,0.3251,0.3252,0.3252,0,0.2364,0.2345,0.2325,0.2275,0.2228,0.2255,0.2252,0.2206,0.2198,0.2328,0.2397,0.2635,0.2813,0.3002,0.3196,0.3143,0.2964,0.3084,0.2823,0.2756,0.3118,0.3088,0.3091,0.3091,0.3091,0.3091,0.3091,0.3091,0.2325,0.2265,0.2243,0.213,0.2099,0.1977,0.1945,0.1917,0.1971,0.204,0.2157,0.2317,0.2705,0.3055,0.3145,0.3074,0.2827,0.2714,0.2647,0.2969,0.2975,0.2981,0.2946,0.2919,0.2919,0.219,0.2185,0.2181]},{"header":{"parameterUnit":"m.s-1","parameterCategory":2,"la1":30.2991,"la2":30.254,"lo1":-89.0895,"lo2":-89.0444,"dy":0.0017,"dx":0.0017,"nx":28,"ny":28,"refTime":"2025-04-05T03:00:00:Z","depth":"0","parameterNumber":3,"parameterNumberName":"V-component_of_CURRENTS"},"data":[0,0,0,0,0,0,0,0,0,0,0,0,0,0,0,0,0,0,0,0,0,0,0,0,0,0,0,0,0,0,0,0,0,0,0,0,0,0,0,0,0,0,0,0,0,0,0,0,0,0,0,0,0,0,0,0,0,0,0.006,0.0059,0,-0.0027,-0.0029,-0.003,-0.0082,-0.0082,-0.0082,-0.0083,-0.0183,-0.0186,-0.0188,0,0,0,0,0,0,0,0,0,0,0,0,0,0.0114,0.0114,0.006,0.0059,0.0058,-0.0027,-0.0029,-0.003,-0.0082,-0.0082,-0.0082,-0.0083,-0.0182,-0.0185,-0.0189,0,0,0,0,0,0,0,0,0,0,0,0,0,0.0063,0.0113,0.006,0.0023,0.0019,-0.0027,-0.0029,-0.003,-0.0082,-0.0082,-0.0082,-0.0083,-0.0181,-0.0185,-0.0189,-0.0212,0,0,-0.0201,-0.0203,0,0,0,0,0,0,0,0,0.0066,0.0061,0.003,0.0026,0.0021,-0.0042,-0.0046,-0.0091,-0.0082,-0.0046,-0.0083,-0.0083,-0.0136,-0.0143,-0.0163,-0.0217,-0.0221,-0.0201,-0.0204,-0.0206,-0.0207,0,0,0,0,0,0,0,0.007,0.0064,0.0023,0.0029,0.0024,-0.0011,-0.0018,-0.0055,-0.0092,-0.0049,-0.0053,-0.0059,-0.0138,-0.0159,-0.0165,-0.0223,-0.0201,-0.0205,-0.0207,-0.0209,-0.0293,-0.0293,0,0,0,0,0,0,0.0089,0.0068,0.0026,0.0021,0.0047,-0.0012,-0.002,-0.0024,-0.0091,-0.0101,-0.0059,-0.0061,-0.0152,-0.0161,-0.0169,-0.0182,-0.0206,-0.0209,-0.0212,-0.0293,-0.0293,-0.0293,0,0,0,0,0,0,0.009,0.0086,0.0029,0.0044,0.0034,-0.0012,-0.0016,-0.0025,-0.0041,-0.0097,-0.0108,-0.0064,-0.0152,-0.0164,-0.0196,-0.0187,-0.0211,-0.0215,-0.0293,-0.0293,-0.0293,-0.022,0,0,0,0,0,0,0.0092,0.0087,0.009,0.0045,0.0034,0.0012,-0.0016,-0.0027,-0.0044,-0.0048,-0.0106,-0.0116,-0.0153,-0.0189,-0.0199,-0.0193,-0.0218,-0.0294,-0.0293,-0.0293,-0.0222,-0.0217,-0.0213,0,0,0,0,0,0.0095,0.0102,0.0091,0.0086,0.0041,0.0012,0.0003,-0.0032,-0.0044,-0.0047,-0.0086,-0.0114,-0.0195,-0.0192,-0.0204,-0.0199,-0.0294,-0.0293,-0.0293,-0.0225,-0.0218,-0.0213,0,0,0,0,0,0,0.0125,0.0096,0.0083,0.008,0.0054,0.0005,-0.0002,-0.0025,-0.006,-0.0062,-0.0114,-0.0127,-0.0152,-0.0186,-0.0182,-0.0223,-0.0248,-0.025,-0.0192,-0.0186,-0.0182,-0.016,-0.0221,0,0,0,0,0,0.0135,0.0135,0.0098,0.0097,0.0087,0.0045,0.0029,0.0007,-0.0029,-0.0045,-0.0085,-0.0127,-0.0162,-0.0181,-0.0219,-0.0242,-0.0266,-0.0246,-0.0241,-0.0236,-0.0227,-0.0257,-0.0254,-0.0292,-0.0292,-0.0292,0,0,0.0147,0.0132,0.013,0.0104,0.008,0.0072,0.0035,0.0018,0.0012,-0.005,-0.0071,-0.0112,-0.0164,-0.0189,-0.0203,-0.0215,-0.0238,-0.0236,-0.0232,-0.0225,-0.0257,-0.0253,-0.0249,-0.0292,-0.0292,-0.0292,0,0,0.0174,0.0157,0.0166,0.0149,0.0123,0.0096,0.0097,0.0054,0.0035,0.0009,-0.0034,-0.0066,-0.0124,-0.0156,-0.0181,-0.0172,-0.0211,-0.0187,-0.0144,-0.0173,-0.017,-0.0168,-0.0187,-0.0187,-0.0184,-0.0183,-0.0183,0,0.019,0.0195,0.0164,0.0167,0.0161,0.0114,0.0122,0.0094,0.0046,0.0038,0.0014,-0.0062,-0.0106,-0.0132,-0.0131,-0.0159,-0.018,-0.016,-0.0165,-0.0163,-0.0162,-0.0183,-0.0183,-0.018,-0.018,-0.0181,-0.0181,0,0.0222,0.0224,0.0229,0.022,0.0208,0.0207,0.0171,0.0157,0.0129,0.01,0.0069,0.0005,-0.0036,-0.0059,-0.0094,-0.0106,-0.0126,-0.0154,-0.0175,-0.0153,-0.0177,-0.0179,-0.0175,-0.0176,-0.0177,-0.0178,0,0,0.0267,0.0255,0.0257,0.0266,0.0238,0.0235,0.0228,0.021,0.0216,0.016,0.0159,0.0091,0.0057,0.0027,-0.0023,-0.0053,-0.0064,-0.0094,-0.0097,-0.0102,-0.012,-0.0121,-0.0124,-0.0094,-0.0094,-0.0094,-0.0137,0,0.0304,0.0327,0.0308,0.0332,0.0341,0.0305,0.0305,0.0283,0.0256,0.024,0.0175,0.015,0.0089,0.0073,0.0034,-0.004,-0.0067,-0.0049,-0.015,-0.0152,-0.0147,-0.0126,-0.0077,-0.0111,-0.014,-0.014,-0.014,0,0.0346,0.0356,0.0385,0.0394,0.0396,0.0398,0.0401,0.0393,0.0357,0.0336,0.0297,0.0249,0.0197,0.0141,0.0037,0.0051,-0.0024,-0.0084,-0.0088,-0.0115,-0.0157,-0.014,-0.0114,-0.0221,-0.0144,-0.0144,-0.0143,0,0.0401,0.0414,0.0442,0.0443,0.044,0.0448,0.0443,0.0422,0.0435,0.0397,0.0405,0.0327,0.0298,0.0194,0.0073,0.0055,-0.0041,-0.0084,-0.0154,-0.0155,-0.0146,-0.0146,-0.0225,-0.0153,-0.0153,-0.0153,-0.0152,0,0.0449,0.0475,0.0469,0.0485,0.0521,0.0499,0.0534,0.0516,0.0513,0.0539,0.0458,0.0467,0.0311,0.0238,0.011,-0.0017,-0.0012,-0.0136,-0.0164,-0.0119,-0.0116,-0.0236,-0.0307,-0.0154,-0.0154,-0.0153,-0.0153,0,0.0501,0.0498,0.0532,0.054,0.0546,0.0568,0.0595,0.0623,0.0607,0.064,0.0637,0.0579,0.0488,0.0335,0.0172,0.0047,-0.0152,-0.0135,-0.0065,-0.0084,-0.0253,-0.0322,-0.0456,-0.0539,-0.0217,-0.0218,-0.0218,0,0.0531,0.055,0.0574,0.06,0.0604,0.0635,0.0662,0.0663,0.0703,0.0715,0.0744,0.0681,0.0655,0.0424,0.0205,-0.0002,-0.0146,-0.0116,-0.0148,-0.0245,-0.0343,-0.0411,-0.0477,-0.0107,-0.0106,-0.0106,-0.0105,0,0.0583,0.0585,0.061,0.066,0.0694,0.0739,0.0782,0.0833,0.0843,0.0884,0.0927,0.0915,0.0718,0.0554,0.0268,0.0102,-0.0191,-0.0111,-0.0231,-0.0273,-0.0334,-0.0431,-0.0097,-0.01,-0.0101,-0.0101,-0.0101,-0.0102,0.0621,0.0643,0.0672,0.0721,0.0767,0.0832,0.0879,0.0945,0.1022,0.1093,0.1081,0.1113,0.0883,0.0518,0.0264,-0.0118,-0.0169,-0.0231,-0.0308,-0.0371,-0.0445,-0.0093,-0.0119,-0.012,-0.012,-0.0121,-0.0121,0,0.0663,0.0686,0.0735,0.079,0.0849,0.0861,0.0953,0.1008,0.1108,0.1218,0.127,0.1263,0.0942,0.0587,0.0095,-0.0223,-0.0391,-0.0412,-0.0494,-0.0558,-0.0246,-0.0234,-0.0261,-0.0261,-0.0261,-0.0261,-0.026,-0.026,0.0686,0.0733,0.075,0.0846,0.0891,0.0965,0.1018,0.1105,0.1209,0.1363,0.1473,0.1545,0.1393,0.0438,-0.0217,-0.0403,-0.0658,-0.0712,-0.0875,-0.0639,-0.0628,-0.0617,-0.0622,-0.073,-0.073,-0.1142,-0.1145,-0.1148]}],[{"header":{"parameterUnit":"m.s-1","parameterCategory":2,"la1":30.2991,"la2":30.254,"lo1":-89.0895,"lo2":-89.0444,"dy":0.0017,"dx":0.0017,"nx":28,"ny":28,"refTime":"2025-04-05T03:00:00:Z","depth":"2","parameterNumber":2,"parameterNumberName":"U-component_of_CURRENTS"},"data":[0,0,0,0,0,0,0,0,0,0,0,0,0,0,0,0,0,0,0,0,0,0,0,0,0,0,0,0,0,0,0,0,0,0,0,0,0,0,0,0,0,0,0,0,0,0,0,0,0,0,0,0,0,0,0,0,0,0,0.2701,0.2702,0,0.2725,0.2725,0.2725,0.271,0.2709,0.2709,0.2709,0.2673,0.2672,0.2672,0,0,0,0,0,0,0,0,0,0,0,0,0,0.264,0.2641,0.2701,0.2702,0.2702,0.2725,0.2725,0.2725,0.271,0.2709,0.2709,0.2708,0.2673,0.2672,0.2672,0,0,0,0,0,0,0,0,0,0,0,0,0,0.2662,0.2641,0.2701,0.27,0.27,0.2725,0.2725,0.2725,0.271,0.2709,0.2709,0.2708,0.2673,0.2672,0.2671,0.2679,0,0,0.2669,0.2669,0,0,0,0,0,0,0,0,0.2661,0.2664,0.2699,0.27,0.27,0.2716,0.269,0.2708,0.271,0.2703,0.2709,0.2708,0.2684,0.2683,0.2685,0.2678,0.2676,0.2669,0.2668,0.2668,0.2668,0,0,0,0,0,0,0,0.2659,0.2663,0.2707,0.27,0.2701,0.2697,0.2699,0.2694,0.2693,0.2704,0.2703,0.2711,0.2684,0.2686,0.2684,0.2676,0.2669,0.2668,0.2668,0.2667,0.2699,0.2701,0,0,0,0,0,0,0.2664,0.2662,0.2707,0.2709,0.2682,0.2699,0.2701,0.2709,0.2695,0.2693,0.2712,0.271,0.2688,0.2685,0.2682,0.2703,0.2668,0.2667,0.2667,0.2698,0.27,0.2701,0,0,0,0,0,0,0.2662,0.2668,0.2706,0.2688,0.2693,0.2701,0.271,0.271,0.2716,0.2702,0.2699,0.2718,0.2687,0.2684,0.2689,0.2701,0.2667,0.2666,0.2696,0.2698,0.27,0.2736,0,0,0,0,0,0,0.266,0.2667,0.2673,0.2688,0.2694,0.2724,0.2711,0.2711,0.2723,0.2722,0.2706,0.2702,0.2686,0.269,0.2688,0.2699,0.2665,0.2695,0.2697,0.27,0.2733,0.2739,0.2744,0,0,0,0,0,0.2658,0.267,0.2674,0.2679,0.2703,0.2725,0.2727,0.2729,0.2724,0.273,0.2726,0.2703,0.2705,0.2691,0.2688,0.2699,0.2693,0.2697,0.27,0.273,0.2738,0.2744,0,0,0,0,0,0,0.2644,0.267,0.2674,0.2693,0.271,0.2723,0.2732,0.2735,0.2738,0.2735,0.2717,0.2714,0.2724,0.2713,0.2698,0.2719,0.2697,0.2699,0.2721,0.2728,0.2733,0.2727,0.2665,0,0,0,0,0,0.2646,0.2663,0.2685,0.2701,0.2711,0.2724,0.2733,0.2737,0.2743,0.2743,0.2734,0.273,0.2735,0.2732,0.273,0.2739,0.2742,0.2747,0.2753,0.2757,0.2752,0.2779,0.2786,0.2711,0.2711,0.2711,0,0,0.2645,0.2663,0.2671,0.2699,0.2712,0.2728,0.2727,0.2746,0.2756,0.2739,0.2746,0.2748,0.2744,0.2755,0.2759,0.2745,0.2784,0.2761,0.2765,0.2757,0.2783,0.279,0.2797,0.2713,0.2713,0.2712,0,0,0.2653,0.2668,0.2684,0.2701,0.2728,0.2736,0.2745,0.2762,0.2766,0.278,0.2775,0.2787,0.2785,0.2788,0.2789,0.2826,0.2814,0.2829,0.2845,0.2871,0.2877,0.2883,0.2909,0.2916,0.2828,0.2828,0.2828,0,0.265,0.2671,0.2692,0.2712,0.2722,0.2741,0.2754,0.2769,0.2784,0.2791,0.2785,0.2806,0.28,0.2822,0.2836,0.2836,0.285,0.2817,0.2877,0.2882,0.2887,0.2912,0.292,0.283,0.283,0.283,0.283,0,0.2671,0.2684,0.2696,0.2724,0.274,0.2756,0.2779,0.2793,0.2801,0.2812,0.2837,0.2842,0.2851,0.286,0.2855,0.2891,0.2892,0.2883,0.2857,0.2897,0.2921,0.2928,0.2833,0.2833,0.2832,0.2832,0,0,0.2662,0.2702,0.2701,0.2708,0.2744,0.2753,0.2783,0.2807,0.282,0.2843,0.2862,0.2883,0.289,0.2893,0.2898,0.292,0.2971,0.2916,0.2917,0.2935,0.3036,0.3041,0.3049,0.2975,0.2976,0.2977,0.3044,0,0.2666,0.2688,0.2712,0.2725,0.2734,0.2762,0.2781,0.2808,0.283,0.2855,0.2882,0.2901,0.2903,0.2911,0.2938,0.2963,0.299,0.2954,0.3,0.3001,0.2995,0.3057,0.2766,0.2802,0.3051,0.3052,0.3053,0,0.2668,0.2682,0.2694,0.2712,0.2719,0.2731,0.2758,0.2779,0.2829,0.2852,0.2891,0.2912,0.2959,0.2949,0.3018,0.2998,0.3018,0.3036,0.3039,0.3032,0.3019,0.2801,0.2805,0.3065,0.3064,0.3063,0.3062,0,0.2631,0.266,0.2662,0.2671,0.2705,0.2713,0.2728,0.2772,0.2797,0.2853,0.2886,0.2937,0.2974,0.3011,0.3062,0.3042,0.3138,0.3111,0.3136,0.3136,0.289,0.2868,0.3155,0.3155,0.3155,0.3154,0.3154,0,0.2614,0.2612,0.2642,0.2643,0.2638,0.2677,0.2684,0.2718,0.278,0.2808,0.2878,0.2921,0.2992,0.3057,0.3082,0.3148,0.316,0.3152,0.316,0.2899,0.2877,0.3098,0.309,0.3157,0.3156,0.3156,0.3155,0,0.2566,0.2591,0.2587,0.2614,0.2619,0.2611,0.2652,0.2669,0.274,0.2786,0.2811,0.293,0.3018,0.3093,0.3168,0.3183,0.3232,0.3245,0.2945,0.2917,0.3202,0.3196,0.3274,0.3275,0.3276,0.3276,0.3277,0,0.2542,0.254,0.2548,0.2542,0.255,0.2554,0.2562,0.2631,0.2662,0.2782,0.2807,0.293,0.2996,0.3142,0.3154,0.3212,0.3272,0.3009,0.292,0.3218,0.3218,0.321,0.3203,0.2602,0.2597,0.2593,0.2589,0,0.2493,0.2496,0.2494,0.2476,0.2476,0.2468,0.2492,0.2516,0.2602,0.2658,0.2745,0.2815,0.2951,0.2896,0.3006,0.2996,0.2978,0.2933,0.3302,0.2643,0.2597,0.2593,0.2605,0.2553,0.2556,0.2559,0.2561,0.2562,0.245,0.2424,0.2421,0.2393,0.2391,0.2369,0.2332,0.238,0.2407,0.2444,0.2588,0.2604,0.2674,0.2698,0.2651,0.2626,0.2841,0.272,0.2726,0.2738,0.2675,0.2635,0.2585,0.2589,0.2592,0.2595,0.2597,0,0.2366,0.2357,0.2338,0.229,0.2239,0.2271,0.2269,0.2221,0.2198,0.2271,0.2304,0.2176,0.2161,0.2246,0.2146,0.2206,0.2107,0.2131,0.1952,0.1993,0.2028,0.1921,0.1635,0.1632,0.1629,0.1627,0,0,0.2325,0.2263,0.2241,0.2133,0.211,0.2005,0.1975,0.1941,0.1957,0.1918,0.19,0.2025,0.2173,0.1855,0.1841,0.1719,0.1828,0.1649,0.2422,0.225,0.2281,0.2379,0.2265,0,0,0,0,0]},{"header":{"parameterUnit":"m.s-1","parameterCategory":2,"la1":30.2991,"la2":30.254,"lo1":-89.0895,"lo2":-89.0444,"dy":0.0017,"dx":0.0017,"nx":28,"ny":28,"refTime":"2025-04-05T03:00:00:Z","depth":"2","parameterNumber":3,"parameterNumberName":"V-component_of_CURRENTS"},"data":[0,0,0,0,0,0,0,0,0,0,0,0,0,0,0,0,0,0,0,0,0,0,0,0,0,0,0,0,0,0,0,0,0,0,0,0,0,0,0,0,0,0,0,0,0,0,0,0,0,0,0,0,0,0,0,0,0,0,0.0018,0.0017,0,-0.0069,-0.007,-0.0071,-0.0123,-0.0123,-0.0123,-0.0123,-0.0222,-0.0224,-0.0227,0,0,0,0,0,0,0,0,0,0,0,0,0,0.0071,0.0071,0.0018,0.0017,0.0016,-0.0068,-0.007,-0.0071,-0.0123,-0.0123,-0.0123,-0.0123,-0.0221,-0.0224,-0.0227,0,0,0,0,0,0,0,0,0,0,0,0,0,0.0021,0.0071,0.0018,-0.0018,-0.0022,-0.0068,-0.007,-0.0072,-0.0123,-0.0123,-0.0123,-0.0123,-0.022,-0.0224,-0.0228,-0.025,0,0,-0.0239,-0.0241,0,0,0,0,0,0,0,0,0.0024,0.0019,-0.0012,-0.0016,-0.002,-0.0083,-0.0087,-0.0131,-0.0123,-0.0087,-0.0123,-0.0123,-0.0175,-0.0183,-0.0202,-0.0255,-0.0259,-0.024,-0.0242,-0.0244,-0.0245,0,0,0,0,0,0,0,0.0028,0.0022,-0.0019,-0.0013,-0.0018,-0.0053,-0.006,-0.0096,-0.0132,-0.009,-0.0094,-0.01,-0.0178,-0.0198,-0.0204,-0.0261,-0.024,-0.0243,-0.0246,-0.0247,-0.033,-0.033,0,0,0,0,0,0,0.0046,0.0026,-0.0016,-0.0021,0.0005,-0.0053,-0.0061,-0.0065,-0.0131,-0.0141,-0.0099,-0.0102,-0.0191,-0.02,-0.0208,-0.022,-0.0244,-0.0247,-0.025,-0.033,-0.033,-0.033,0,0,0,0,0,0,0.0048,0.0043,-0.0013,0.0002,-0.0007,-0.0053,-0.0058,-0.0066,-0.0082,-0.0138,-0.0148,-0.0105,-0.0192,-0.0203,-0.0234,-0.0225,-0.0249,-0.0253,-0.033,-0.033,-0.033,-0.0257,0,0,0,0,0,0,0.005,0.0045,0.0048,0.0003,-0.0007,-0.003,-0.0058,-0.0068,-0.0085,-0.0088,-0.0146,-0.0155,-0.0193,-0.0228,-0.0238,-0.0231,-0.0256,-0.033,-0.033,-0.033,-0.0259,-0.0254,-0.0249,0,0,0,0,0,0.0052,0.0059,0.0049,0.0044,-0.0001,-0.0029,-0.0038,-0.0073,-0.0084,-0.0088,-0.0126,-0.0153,-0.0233,-0.0231,-0.0243,-0.0237,-0.033,-0.033,-0.033,-0.0261,-0.0255,-0.0249,0,0,0,0,0,0,0.0083,0.0054,0.0041,0.0039,0.0012,-0.0037,-0.0042,-0.0065,-0.01,-0.0102,-0.0154,-0.0166,-0.0191,-0.0224,-0.022,-0.026,-0.0286,-0.0287,-0.023,-0.0224,-0.0219,-0.0198,-0.0259,0,0,0,0,0,0.0093,0.0093,0.0057,0.0056,0.0046,0.0004,-0.0011,-0.0034,-0.0069,-0.0084,-0.0124,-0.0166,-0.02,-0.0219,-0.0257,-0.0278,-0.0303,-0.0282,-0.0277,-0.0273,-0.0264,-0.0295,-0.0291,-0.0328,-0.0328,-0.0328,0,0,0.0105,0.009,0.0089,0.0063,0.0039,0.0031,-0.0006,-0.0022,-0.0028,-0.0089,-0.011,-0.0151,-0.0202,-0.0227,-0.024,-0.0253,-0.0275,-0.0273,-0.0268,-0.0262,-0.0294,-0.029,-0.0287,-0.0328,-0.0328,-0.0328,0,0,0.0132,0.0117,0.0126,0.0108,0.0082,0.0056,0.0057,0.0014,-0.0004,-0.003,-0.0073,-0.0104,-0.0161,-0.0194,-0.0218,-0.0209,-0.0248,-0.0223,-0.0181,-0.0211,-0.0207,-0.0205,-0.0224,-0.0224,-0.022,-0.022,-0.022,0,0.0149,0.0154,0.0123,0.0127,0.012,0.0074,0.0082,0.0054,0.0007,-0.0002,-0.0024,-0.01,-0.0144,-0.0169,-0.0168,-0.0196,-0.0217,-0.0196,-0.0202,-0.0201,-0.0199,-0.022,-0.0221,-0.0216,-0.0217,-0.0217,-0.0217,0,0.0181,0.0184,0.0188,0.018,0.0168,0.0166,0.0131,0.0117,0.009,0.0061,0.003,-0.0033,-0.0074,-0.0096,-0.0131,-0.0144,-0.0163,-0.0191,-0.0212,-0.0191,-0.0215,-0.0217,-0.0211,-0.0212,-0.0213,-0.0214,0,0,0.0226,0.0214,0.0217,0.0225,0.0198,0.0194,0.0188,0.017,0.0174,0.012,0.0118,0.0051,0.0018,-0.0011,-0.0062,-0.0091,-0.0103,-0.0131,-0.0135,-0.014,-0.016,-0.0161,-0.0164,-0.0132,-0.0132,-0.0132,-0.0177,0,0.0263,0.0286,0.0267,0.029,0.03,0.0264,0.0263,0.0241,0.0214,0.0198,0.0134,0.0109,0.005,0.0034,-0.0005,-0.0079,-0.0106,-0.0087,-0.0189,-0.0191,-0.0187,-0.0166,-0.0182,-0.0222,-0.0179,-0.018,-0.018,0,0.0305,0.0315,0.0343,0.0351,0.0353,0.0356,0.0357,0.035,0.0314,0.0292,0.0254,0.0206,0.0154,0.01,-0.0004,0.001,-0.0064,-0.0124,-0.0128,-0.0155,-0.0196,-0.024,-0.0228,-0.0184,-0.0184,-0.0183,-0.0183,0,0.0359,0.0372,0.0399,0.04,0.0396,0.0405,0.04,0.0379,0.039,0.0352,0.0359,0.0282,0.0254,0.015,0.003,0.0013,-0.0084,-0.0126,-0.0196,-0.0197,-0.0243,-0.0247,-0.0195,-0.0194,-0.0194,-0.0194,-0.0194,0,0.0407,0.0432,0.0426,0.0442,0.0477,0.0455,0.0489,0.0471,0.0467,0.0492,0.0412,0.042,0.0265,0.0193,0.0066,-0.006,-0.0056,-0.0178,-0.0206,-0.0217,-0.0219,-0.0216,-0.0218,-0.0196,-0.0196,-0.0195,-0.0195,0,0.0458,0.0455,0.0489,0.0496,0.0502,0.0524,0.0549,0.0577,0.0561,0.0592,0.0589,0.0529,0.0438,0.0287,0.0125,0.0002,-0.0131,-0.0179,-0.0174,-0.02,-0.0235,-0.0233,-0.0261,-0.0261,-0.0261,-0.0261,-0.0262,0,0.0488,0.0507,0.0531,0.0556,0.056,0.059,0.0617,0.0616,0.0655,0.0665,0.0693,0.0628,0.0596,0.0366,0.0131,-0.0079,-0.0105,-0.0229,-0.0268,-0.0216,-0.024,-0.0238,-0.0235,-0.0304,-0.0305,-0.0305,-0.0306,0,0.0539,0.0541,0.0566,0.0615,0.0649,0.0693,0.0734,0.0783,0.0792,0.0823,0.0862,0.0843,0.0632,0.0411,0.0121,-0.0032,-0.0199,-0.0244,-0.0196,-0.0276,-0.0258,-0.0282,-0.0278,-0.031,-0.0309,-0.0309,-0.0309,-0.0309,0.0576,0.0598,0.0627,0.0675,0.072,0.0783,0.0829,0.0853,0.0915,0.0911,0.0945,0.0867,0.0674,0.027,0.0052,-0.0209,-0.02,-0.0316,-0.0314,-0.0312,-0.03,-0.0283,-0.0336,-0.0336,-0.0336,-0.0336,-0.0336,0,0.0602,0.064,0.0688,0.0742,0.0777,0.0813,0.0901,0.088,0.0914,0.0914,0.0904,0.0696,0.0493,0.0269,-0.012,-0.0317,-0.0348,-0.0383,-0.0384,-0.0379,-0.0375,-0.0366,-0.042,-0.0421,-0.0421,-0.0422,0,0,0.0621,0.0658,0.0674,0.0752,0.0812,0.0825,0.0874,0.0837,0.0815,0.0758,0.0724,0.0697,0.0507,0.0217,-0.0036,-0.0241,-0.0276,-0.0288,-0.0207,-0.0178,-0.0172,-0.0328,-0.0308,0,0,0,0,0]}],[{"header":{"parameterUnit":"m.s-1","parameterCategory":2,"la1":30.2991,"la2":30.254,"lo1":-89.0895,"lo2":-89.0444,"dy":0.0017,"dx":0.0017,"nx":28,"ny":28,"refTime":"2025-04-05T03:00:00:Z","depth":"4","parameterNumber":2,"parameterNumberName":"U-component_of_CURRENTS"},"data":[0,0,0,0,0,0,0,0,0,0,0,0,0,0,0,0,0,0,0,0,0,0,0,0,0,0,0,0,0,0,0,0,0,0,0,0,0,0,0,0,0,0,0,0,0,0,0,0,0,0,0,0,0,0,0,0,0,0,0.162,0.1621,0,0.1681,0.1682,0.1682,0.1731,0.1732,0.1732,0.1733,0.1816,0.1817,0.1819,0,0,0,0,0,0,0,0,0,0,0,0,0,0.1553,0.1554,0.162,0.1621,0.1622,0.1681,0.1682,0.1682,0.1731,0.1732,0.1732,0.1733,0.1815,0.1817,0.1819,0,0,0,0,0,0,0,0,0,0,0,0,0,0.1593,0.1554,0.162,0.1655,0.1659,0.1681,0.1682,0.1682,0.1731,0.1732,0.1733,0.1734,0.1814,0.1817,0.1819,0.1814,0,0,0.1826,0.1827,0,0,0,0,0,0,0,0,0.1591,0.1595,0.1649,0.1652,0.1657,0.1701,0.1688,0.1728,0.173,0.1701,0.1733,0.1734,0.178,0.1785,0.1791,0.1818,0.1821,0.1827,0.1828,0.1829,0.183,0,0,0,0,0,0,0,0.1588,0.1593,0.1642,0.165,0.1655,0.167,0.1676,0.1696,0.1733,0.1704,0.1708,0.1717,0.1782,0.1789,0.1794,0.1822,0.1826,0.1829,0.183,0.1831,0.196,0.1962,0,0,0,0,0,0,0.1583,0.159,0.1641,0.1644,0.1628,0.167,0.1678,0.1684,0.1733,0.1741,0.1717,0.172,0.1784,0.1791,0.1797,0.1893,0.1829,0.1831,0.1833,0.1958,0.1961,0.1963,0,0,0,0,0,0,0.1581,0.1586,0.1638,0.162,0.1628,0.1671,0.1678,0.1685,0.1727,0.1742,0.1751,0.1755,0.1785,0.1794,0.1849,0.1893,0.1832,0.1834,0.1956,0.1959,0.1962,0.2022,0,0,0,0,0,0,0.1579,0.1585,0.1606,0.162,0.1629,0.1674,0.1677,0.1686,0.173,0.1735,0.1778,0.1784,0.1787,0.1846,0.1852,0.1895,0.1836,0.1953,0.1957,0.1961,0.2018,0.2027,0.2035,0,0,0,0,0,0.1576,0.1593,0.1606,0.1614,0.165,0.1675,0.1682,0.1713,0.1731,0.1754,0.1788,0.1785,0.1874,0.1849,0.1856,0.1901,0.1951,0.1956,0.1961,0.2014,0.2025,0.2035,0,0,0,0,0,0,0.1577,0.1601,0.1615,0.1641,0.1668,0.1685,0.1715,0.1732,0.1776,0.1795,0.1806,0.1815,0.1881,0.1883,0.1855,0.1951,0.1914,0.192,0.1953,0.1963,0.1972,0.1962,0.1838,0,0,0,0,0,0.1585,0.1608,0.163,0.1656,0.1672,0.17,0.1722,0.1744,0.1775,0.1797,0.1827,0.1863,0.1898,0.1925,0.1951,0.2001,0.1998,0.2037,0.2045,0.2052,0.205,0.2085,0.2096,0.1978,0.1978,0.1978,0,0,0.1594,0.1612,0.1626,0.1659,0.1685,0.1714,0.1717,0.1761,0.1795,0.1798,0.1868,0.1894,0.1917,0.1975,0.2005,0.1988,0.2088,0.2058,0.2064,0.2057,0.2091,0.2102,0.2112,0.1981,0.198,0.198,0,0,0.1612,0.164,0.1663,0.1688,0.1734,0.1749,0.1769,0.1808,0.1842,0.19,0.1916,0.1968,0.2022,0.2046,0.2064,0.2135,0.2129,0.2156,0.2196,0.2231,0.224,0.2249,0.2266,0.2276,0.2163,0.2163,0.2164,0,0.1626,0.1652,0.1676,0.1705,0.1733,0.1769,0.1801,0.1836,0.1893,0.1923,0.1935,0.2029,0.2051,0.2115,0.2146,0.2154,0.2168,0.2153,0.2241,0.2249,0.2256,0.2272,0.2282,0.2167,0.2167,0.2166,0.2166,0,0.1647,0.1685,0.1705,0.1751,0.1784,0.1822,0.1865,0.1914,0.196,0.199,0.2074,0.2108,0.2161,0.2186,0.219,0.2264,0.2255,0.2243,0.221,0.2272,0.2285,0.2294,0.2172,0.2171,0.217,0.2169,0,0,0.163,0.1705,0.1715,0.1747,0.1814,0.1838,0.1907,0.1967,0.2014,0.2082,0.2141,0.2214,0.2238,0.2259,0.228,0.2317,0.2387,0.2312,0.2312,0.2321,0.2463,0.2316,0.2312,0.2398,0.24,0.2401,0.2453,0,0.1643,0.17,0.1737,0.1802,0.1833,0.1891,0.1947,0.2011,0.2069,0.2136,0.2192,0.2257,0.2265,0.2303,0.2344,0.2377,0.2413,0.2373,0.2409,0.2409,0.2264,0.2317,0.2407,0.2459,0.2461,0.2463,0.2464,0,0.1641,0.1683,0.1746,0.1826,0.1847,0.1896,0.1987,0.2043,0.2138,0.2184,0.2259,0.2299,0.238,0.237,0.2458,0.2437,0.2458,0.2474,0.2476,0.2319,0.2278,0.2384,0.2479,0.2478,0.2477,0.2476,0.2475,0,0.1598,0.1684,0.1736,0.1765,0.1861,0.1912,0.1971,0.2064,0.2118,0.2223,0.2271,0.2358,0.2418,0.2462,0.2508,0.2495,0.2585,0.2564,0.2449,0.2439,0.2528,0.2518,0.2617,0.2617,0.2617,0.2617,0.2617,0,0.1574,0.1619,0.1728,0.1755,0.1822,0.1901,0.1979,0.2047,0.2149,0.2203,0.2299,0.2344,0.2448,0.2508,0.253,0.2513,0.2606,0.2456,0.2443,0.2553,0.2546,0.2534,0.2524,0.2619,0.2619,0.2618,0.2618,0,0.1514,0.1586,0.1651,0.1766,0.1804,0.1856,0.1977,0.2025,0.2134,0.2208,0.2248,0.2366,0.2432,0.2509,0.2582,0.2527,0.2532,0.2505,0.2622,0.2615,0.2357,0.235,0.2367,0.2362,0.2358,0.2354,0.2352,0,0.1483,0.1514,0.1643,0.1684,0.1744,0.1831,0.1885,0.2005,0.2051,0.2193,0.2214,0.2328,0.2387,0.2367,0.2462,0.2486,0.2466,0.245,0.2392,0.2346,0.2333,0.2331,0.233,0.2345,0.2344,0.2343,0.2342,0,0.1426,0.149,0.1546,0.1628,0.1696,0.1754,0.1842,0.186,0.1985,0.2102,0.2117,0.2147,0.2217,0.2263,0.2306,0.232,0.2445,0.2407,0.2415,0.236,0.2321,0.2311,0.2314,0.2328,0.233,0.2332,0.2332,0,0.139,0.1412,0.1495,0.1552,0.1633,0.1655,0.1709,0.1752,0.1806,0.1953,0.1952,0.2067,0.2179,0.2179,0.2216,0.222,0.2187,0.2115,0.2137,0.2153,0.2062,0.1979,0.1871,0,0,0,0,0,0.1342,0.1357,0.1409,0.1461,0.1535,0.1579,0.1671,0.1724,0.1838,0.1795,0.1864,0.1909,0.1946,0.2014,0.1979,0.215,0.2216,0.2101,0.2148,0.2251,0.2267,0.2181,0,0,0,0,0,0,0.131,0.1361,0.1375,0.1373,0.1392,0.145,0.1504,0.158,0.156,0.168,0.171,0.1803,0.1875,0.1947,0.1944,0.1968,0.196,0.2181,0.2177,0.2242,0.2257,0.227,0.2187,0,0,0,0,0]},{"header":{"parameterUnit":"m.s-1","parameterCategory":2,"la1":30.2991,"la2":30.254,"lo1":-89.0895,"lo2":-89.0444,"dy":0.0017,"dx":0.0017,"nx":28,"ny":28,"refTime":"2025-04-05T03:00:00:Z","depth":"4","parameterNumber":3,"parameterNumberName":"V-component_of_CURRENTS"},"data":[0,0,0,0,0,0,0,0,0,0,0,0,0,0,0,0,0,0,0,0,0,0,0,0,0,0,0,0,0,0,0,0,0,0,0,0,0,0,0,0,0,0,0,0,0,0,0,0,0,0,0,0,0,0,0,0,0,0,-0.0115,-0.0116,0,-0.0166,-0.0167,-0.0167,-0.0213,-0.0214,-0.0214,-0.0214,-0.028,-0.0282,-0.0283,0,0,0,0,0,0,0,0,0,0,0,0,0,-0.0087,-0.0087,-0.0115,-0.0116,-0.0116,-0.0166,-0.0167,-0.0167,-0.0213,-0.0214,-0.0214,-0.0215,-0.028,-0.0282,-0.0283,0,0,0,0,0,0,0,0,0,0,0,0,0,-0.0116,-0.0087,-0.0115,-0.0144,-0.0147,-0.0166,-0.0167,-0.0168,-0.0213,-0.0214,-0.0214,-0.0215,-0.0279,-0.0281,-0.0283,-0.0282,0,0,-0.0289,-0.029,0,0,0,0,0,0,0,0,-0.0114,-0.0117,-0.0139,-0.0142,-0.0146,-0.0183,-0.0181,-0.0206,-0.0213,-0.0189,-0.0214,-0.0215,-0.0248,-0.0253,-0.0262,-0.0285,-0.0288,-0.029,-0.0291,-0.0292,-0.0292,0,0,0,0,0,0,0,-0.0112,-0.0115,-0.0136,-0.014,-0.0144,-0.0165,-0.0169,-0.0186,-0.0215,-0.0191,-0.0194,-0.0198,-0.025,-0.026,-0.0264,-0.0289,-0.029,-0.0291,-0.0293,-0.0293,-0.0329,-0.0329,0,0,0,0,0,0,-0.0101,-0.0113,-0.0135,-0.0138,-0.013,-0.0165,-0.017,-0.0171,-0.0215,-0.0222,-0.0198,-0.02,-0.0256,-0.0261,-0.0266,-0.0268,-0.0292,-0.0294,-0.0295,-0.0329,-0.0329,-0.0329,0,0,0,0,0,0,-0.01,-0.0102,-0.0133,-0.0126,-0.0131,-0.0164,-0.0165,-0.0172,-0.0183,-0.0219,-0.0227,-0.0203,-0.0257,-0.0264,-0.0281,-0.0271,-0.0294,-0.0296,-0.033,-0.0329,-0.0329,-0.0272,0,0,0,0,0,0,-0.0099,-0.0102,-0.0099,-0.0125,-0.0131,-0.0137,-0.0165,-0.0172,-0.0184,-0.0188,-0.0226,-0.0233,-0.0258,-0.0277,-0.0283,-0.0275,-0.0298,-0.033,-0.0329,-0.0329,-0.0274,-0.027,-0.0266,0,0,0,0,0,-0.0098,-0.0087,-0.0098,-0.0101,-0.0126,-0.0137,-0.0142,-0.0169,-0.0183,-0.0183,-0.0211,-0.0232,-0.0278,-0.0279,-0.0285,-0.0277,-0.033,-0.033,-0.0329,-0.0276,-0.0271,-0.0266,0,0,0,0,0,0,-0.0073,-0.0091,-0.0104,-0.01,-0.0115,-0.0144,-0.0145,-0.0164,-0.0185,-0.019,-0.0227,-0.0235,-0.0248,-0.027,-0.0269,-0.0287,-0.0308,-0.0309,-0.0266,-0.0261,-0.0257,-0.0245,-0.03,0,0,0,0,0,-0.0065,-0.0063,-0.0085,-0.0082,-0.0087,-0.0115,-0.0123,-0.014,-0.0163,-0.0174,-0.0201,-0.0229,-0.0249,-0.0261,-0.0283,-0.0289,-0.0313,-0.0289,-0.0285,-0.0282,-0.0277,-0.0306,-0.0304,-0.0327,-0.0327,-0.0327,0,0,-0.0055,-0.0064,-0.0063,-0.0076,-0.0091,-0.0091,-0.0122,-0.0128,-0.013,-0.0176,-0.0186,-0.0214,-0.0248,-0.0258,-0.0266,-0.0276,-0.0287,-0.0281,-0.0277,-0.0275,-0.0305,-0.0303,-0.0301,-0.0326,-0.0327,-0.0327,0,0,-0.0031,-0.004,-0.0031,-0.0038,-0.0054,-0.0069,-0.0068,-0.0094,-0.0108,-0.0119,-0.0154,-0.0175,-0.0206,-0.0229,-0.0245,-0.023,-0.0264,-0.0238,-0.0207,-0.0235,-0.0233,-0.0232,-0.0253,-0.0254,-0.0235,-0.0235,-0.0235,0,-0.0018,-0.0011,-0.0029,-0.0022,-0.0024,-0.0056,-0.0046,-0.0061,-0.0089,-0.0097,-0.0114,-0.0163,-0.0191,-0.0207,-0.0203,-0.022,-0.0241,-0.0221,-0.0228,-0.0228,-0.0228,-0.025,-0.0252,-0.0232,-0.0233,-0.0233,-0.0233,0,0.0009,0.0015,0.0022,0.002,0.0018,0.0022,0.0003,-0.0004,-0.0024,-0.0044,-0.0064,-0.0106,-0.0135,-0.0148,-0.0171,-0.0182,-0.0199,-0.0219,-0.0238,-0.0222,-0.0247,-0.025,-0.0228,-0.0229,-0.023,-0.0231,0,0,0.0034,0.004,0.0043,0.0049,0.0041,0.0043,0.0046,0.0037,0.0039,0.0006,0.0002,-0.0038,-0.0065,-0.0085,-0.012,-0.0146,-0.0161,-0.0176,-0.0179,-0.0192,-0.0219,-0.0217,-0.0221,-0.0184,-0.0184,-0.0184,-0.0235,0,0.0059,0.0083,0.008,0.0103,0.0112,0.0094,0.0101,0.009,0.0074,0.0063,0.0017,0.0,-0.004,-0.0052,-0.0084,-0.0141,-0.0167,-0.0145,-0.0238,-0.024,-0.0237,-0.0223,-0.0185,-0.0237,-0.0238,-0.0238,-0.0239,0,0.0084,0.0097,0.0125,0.0141,0.0144,0.0155,0.016,0.0162,0.0142,0.0127,0.01,0.0065,0.0027,-0.0012,-0.0098,-0.0082,-0.0142,-0.0191,-0.0194,-0.0215,-0.0244,-0.026,-0.0245,-0.0245,-0.0244,-0.0244,-0.0243,0,0.0104,0.0129,0.0152,0.0158,0.0171,0.0182,0.0187,0.0181,0.0191,0.0169,0.0172,0.0115,0.0092,0.0009,-0.0083,-0.0091,-0.0182,-0.0208,-0.0265,-0.0265,-0.0278,-0.0279,-0.027,-0.027,-0.027,-0.027,-0.027,0,0.0125,0.0145,0.0165,0.0178,0.0209,0.0209,0.0238,0.0234,0.0238,0.0255,0.0208,0.0205,0.0097,0.0035,-0.0063,-0.0166,-0.0167,-0.0254,-0.0277,-0.0252,-0.025,-0.028,-0.028,-0.0272,-0.0272,-0.0271,-0.0271,0,0.0136,0.015,0.0179,0.0206,0.0219,0.0239,0.0276,0.0296,0.0297,0.0318,0.0318,0.0275,0.0197,0.0087,-0.0044,-0.0128,-0.0236,-0.0275,-0.0228,-0.0249,-0.0307,-0.0304,-0.034,-0.0341,-0.0341,-0.0341,-0.0341,0,0.0141,0.0158,0.0201,0.0225,0.0238,0.0273,0.0299,0.0317,0.0343,0.0359,0.0371,0.0321,0.0274,0.0102,-0.0026,-0.0203,-0.0236,-0.0294,-0.0312,-0.0294,-0.0313,-0.031,-0.0307,-0.0342,-0.0342,-0.0342,-0.0342,0,0.015,0.0165,0.019,0.024,0.0276,0.0316,0.0357,0.0384,0.0408,0.0422,0.0419,0.0339,0.0254,0.0113,-0.0017,-0.0151,-0.0257,-0.0298,-0.0298,-0.0316,-0.0297,-0.0314,-0.0311,-0.0343,-0.0343,-0.0343,-0.0343,0,0.0154,0.0168,0.0203,0.0243,0.0292,0.0334,0.0362,0.0397,0.0424,0.045,0.0448,0.0359,0.0315,0.014,0.0014,-0.0107,-0.015,-0.0207,-0.0213,-0.0214,-0.0167,-0.0124,-0.0131,0,0,0,0,0,0.0152,0.0162,0.0203,0.0243,0.0295,0.0315,0.0387,0.0415,0.0451,0.0457,0.0456,0.0378,0.0214,0.0148,0.0027,-0.0015,-0.0187,-0.0164,-0.026,-0.0348,-0.0347,-0.0314,0,0,0,0,0,0,0.0147,0.0178,0.0191,0.0233,0.0254,0.0306,0.0345,0.0379,0.0388,0.0418,0.0341,0.0321,0.0167,0.0274,0.0012,-0.0023,-0.0105,-0.0232,-0.0235,-0.0349,-0.0348,-0.0347,-0.0313,0,0,0,0,0]}]]